Location: Muenchen
(48.1800°N, 11.5800°E)
Time: 11:53:52
(UTC+02:00)

Iridium 36 - Visible Passes

Search period start: 01 May 2016 00:00
Search period end: 11 May 2016 00:00
Orbit: 771 x 775 km, 86.4° (Epoch: 30 April)

Date Brightness Start Highest point End Pass type
(mag) Time Alt. Az. Time Alt. Az. Time Alt. Az.
02 May 9.1 21:11:19 10° W 21:13:13 12° WNW 21:15:07 10° NW visible
05 May 9.0 04:44:53 10° NE 04:46:25 11° ENE 04:47:57 10° E visible
08 May 8.6 04:40:01 10° NE 04:42:49 14° ENE 04:45:37 10° E visible
